[[{"header":{"parameterUnit":"m.s-1","parameterCategory":1,"la1":30.2991,"la2":30.254,"lo1":-89.0895,"lo2":-89.0444,"dx":0.0017,"dy":0.0017,"nx":28,"ny":28,"refTime":"2023-02-06T15:00:00:Z","depth":0,"parameterNumber":2,"parameterNumberName":"U-component_of_WINDS"},"data":[0,0,0,0,0,0,0,0,0,0,0,0,0,0,0,0,0,0,0,0,0,0,0,0,0,0,0,0,0,0,0,0,0,0,0,0,0,0,0,0,0,0,0,0,0,0,0,0,0,0,0,0,0,0,0,0,0,0,-5.7104,-5.7105,0,-5.7173,-5.7173,-5.7174,-5.7141,-5.7139,-5.7137,-5.7135,-5.7205,-5.7208,-5.7212,0,0,0,0,0,0,0,0,0,0,0,0,0,-5.6945,-5.6948,-5.7104,-5.7105,-5.7106,-5.7173,-5.7174,-5.7174,-5.7141,-5.7139,-5.7137,-5.7134,-5.7204,-5.7208,-5.7212,0,0,0,0,0,0,0,0,0,0,0,0,0,-5.7014,-5.6949,-5.7104,-5.7097,-5.7097,-5.7172,-5.7174,-5.7175,-5.7141,-5.7139,-5.7136,-5.7133,-5.7202,-5.7207,-5.7213,-5.7298,0,0,-5.7229,-5.7231,0,0,0,0,0,0,0,0,-5.701,-5.702,-5.7097,-5.7098,-5.7098,-5.7145,-5.7143,-5.7216,-5.7142,-5.7125,-5.7135,-5.7132,-5.7187,-5.7193,-5.7212,-5.7302,-5.7305,-5.7229,-5.7232,-5.7235,-5.7236,0,0,0,0,0,0,0,-5.7005,-5.7017,-5.7131,-5.7098,-5.7099,-5.7091,-5.7098,-5.7157,-5.717,-5.7126,-5.7124,-5.7132,-5.7187,-5.7207,-5.7214,-5.7306,-5.7229,-5.7234,-5.7237,-5.7239,-5.747,-5.7473,0,0,0,0,0,0,-5.7001,-5.7013,-5.7129,-5.7133,-5.7047,-5.7096,-5.7104,-5.7133,-5.7169,-5.7172,-5.7134,-5.713,-5.72,-5.7207,-5.7216,-5.7319,-5.7235,-5.7239,-5.7243,-5.7467,-5.7471,-5.7474,0,0,0,0,0,0,-5.6997,-5.7011,-5.7126,-5.7073,-5.7087,-5.7102,-5.7135,-5.7136,-5.7156,-5.7176,-5.7178,-5.7153,-5.7198,-5.7208,-5.7278,-5.7321,-5.7242,-5.7247,-5.7464,-5.7468,-5.7472,-5.7526,0,0,0,0,0,0,-5.6993,-5.701,-5.7043,-5.7073,-5.709,-5.7187,-5.7137,-5.7139,-5.7165,-5.716,-5.7193,-5.7196,-5.7196,-5.7271,-5.7284,-5.7327,-5.7251,-5.746,-5.7466,-5.7471,-5.752,-5.7531,-5.7541,0,0,0,0,0,-5.6987,-5.7055,-5.7045,-5.7059,-5.713,-5.719,-5.7199,-5.7198,-5.7169,-5.7201,-5.7215,-5.7195,-5.7315,-5.7278,-5.7292,-5.7338,-5.7457,-5.7464,-5.7471,-5.7515,-5.7529,-5.7541,0,0,0,0,0,0,-5.7027,-5.7058,-5.7047,-5.7127,-5.7156,-5.7184,-5.7225,-5.7213,-5.7251,-5.7245,-5.7242,-5.725,-5.7322,-5.7337,-5.7296,-5.7423,-5.7381,-5.7391,-5.7411,-5.7424,-5.7434,-5.7428,-5.7255,0,0,0,0,0,-5.7046,-5.7092,-5.7116,-5.7184,-5.7199,-5.721,-5.7236,-5.7233,-5.7263,-5.7275,-5.7293,-5.7323,-5.7368,-5.7397,-5.7439,-5.7523,-5.753,-5.7561,-5.7572,-5.758,-5.7588,-5.7635,-5.7649,-5.7496,-5.7496,-5.7496,0,0,-5.7083,-5.7106,-5.7135,-5.7192,-5.7215,-5.7263,-5.722,-5.7272,-5.7308,-5.7283,-5.735,-5.7365,-5.7398,-5.7476,-5.7511,-5.7491,-5.7632,-5.7589,-5.7595,-5.7599,-5.7643,-5.7657,-5.767,-5.7501,-5.75,-5.7499,0,0,-5.7176,-5.7198,-5.7257,-5.7281,-5.7316,-5.7323,-5.7337,-5.7368,-5.7377,-5.7445,-5.7427,-5.747,-5.7546,-5.7571,-5.7593,-5.7699,-5.7683,-5.7713,-5.7767,-5.7812,-5.7824,-5.7835,-5.7872,-5.7885,-5.7721,-5.7721,-5.7721,0,-5.7218,-5.729,-5.7289,-5.7343,-5.7369,-5.735,-5.741,-5.7433,-5.748,-5.7498,-5.7475,-5.7571,-5.7592,-5.7676,-5.7702,-5.7721,-5.7737,-5.7708,-5.7822,-5.7833,-5.7843,-5.7879,-5.7893,-5.7725,-5.7724,-5.7724,-5.7724,0,-5.734,-5.739,-5.7433,-5.748,-5.7511,-5.7568,-5.7576,-5.7608,-5.7603,-5.7613,-5.7683,-5.7708,-5.7755,-5.7775,-5.777,-5.7858,-5.7845,-5.7822,-5.778,-5.7861,-5.7894,-5.7908,-5.7729,-5.7728,-5.7727,-5.7726,0,0,-5.7457,-5.7504,-5.752,-5.7542,-5.758,-5.7619,-5.7675,-5.7722,-5.7749,-5.7783,-5.783,-5.7897,-5.7877,-5.7903,-5.7901,-5.7941,-5.8023,-5.7914,-5.7914,-5.7933,-5.8122,-5.8138,-5.8154,-5.8013,-5.8016,-5.8018,-5.8119,0,-5.7552,-5.7651,-5.7653,-5.7744,-5.779,-5.7774,-5.7824,-5.7853,-5.7865,-5.7906,-5.7919,-5.7966,-5.7936,-5.7951,-5.799,-5.8005,-5.8061,-5.7998,-5.8057,-5.8059,-5.8048,-5.8171,-5.8188,-5.8282,-5.8132,-5.8134,-5.8136,0,-5.7676,-5.7714,-5.781,-5.7843,-5.7863,-5.7907,-5.7951,-5.7991,-5.8024,-5.803,-5.806,-5.8053,-5.8111,-5.8069,-5.8149,-5.8106,-5.8131,-5.8142,-5.8146,-5.815,-5.8101,-5.8178,-5.8311,-5.8325,-5.8157,-5.8155,-5.8154,0,-5.7752,-5.7828,-5.7895,-5.7914,-5.7954,-5.7986,-5.8004,-5.8035,-5.8063,-5.8102,-5.812,-5.8165,-5.819,-5.8225,-5.823,-5.8199,-5.8311,-5.8269,-5.8317,-5.8317,-5.834,-5.8338,-5.8479,-5.8359,-5.8358,-5.8358,-5.8358,0,-5.7857,-5.7916,-5.7929,-5.797,-5.8037,-5.8039,-5.8105,-5.8121,-5.8149,-5.8193,-5.8182,-5.8224,-5.823,-5.8273,-5.8278,-5.8344,-5.8356,-5.8362,-5.8362,-5.8362,-5.8361,-5.8377,-5.837,-5.8362,-5.8361,-5.836,-5.836,0,-5.7951,-5.7963,-5.8035,-5.8068,-5.8078,-5.8125,-5.8154,-5.8193,-5.8205,-5.8261,-5.8275,-5.8292,-5.8343,-5.8353,-5.8413,-5.8416,-5.8495,-5.8489,-5.8484,-5.8483,-5.853,-5.8525,-5.8685,-5.8706,-5.8573,-5.8574,-5.8575,0,-5.8017,-5.8062,-5.8101,-5.813,-5.815,-5.8197,-5.8227,-5.8232,-5.8263,-5.8306,-5.834,-5.839,-5.843,-5.8513,-5.8531,-5.8577,-5.8572,-5.8625,-5.8579,-5.8577,-5.8572,-5.8569,-5.8573,-5.8633,-5.8634,-5.8635,-5.8636,0,-5.8132,-5.8136,-5.8179,-5.8225,-5.826,-5.8296,-5.8331,-5.8355,-5.8365,-5.8401,-5.8453,-5.8485,-5.8547,-5.8596,-5.8643,-5.8662,-5.8651,-5.8651,-5.8665,-5.8664,-5.8659,-5.8662,-5.8507,-5.8647,-5.8646,-5.8645,-5.8645,-5.8644,-5.8214,-5.8253,-5.8287,-5.8336,-5.8363,-5.8395,-5.8434,-5.8452,-5.8495,-5.8546,-5.8547,-5.8605,-5.8638,-5.87,-5.8722,-5.8767,-5.8751,-5.877,-5.8775,-5.878,-5.8784,-5.8653,-5.8776,-5.8776,-5.8776,-5.8775,-5.8775,0,-5.8328,-5.8349,-5.8394,-5.8443,-5.8481,-5.8469,-5.8507,-5.854,-5.8591,-5.8623,-5.8664,-5.8724,-5.8773,-5.8797,-5.8845,-5.8877,-5.8873,-5.8889,-5.8886,-5.8891,-5.8796,-5.8779,-5.8891,-5.8891,-5.8891,-5.8891,-5.8891,-5.8891,-5.8391,-5.8458,-5.8467,-5.8547,-5.8568,-5.8624,-5.8647,-5.8678,-5.8704,-5.8772,-5.8813,-5.8828,-5.8858,-5.8908,-5.8953,-5.8959,-5.8976,-5.8995,-5.8998,-5.8909,-5.8897,-5.8886,-5.887,-5.8999,-5.8999,-5.9089,-5.9089,-5.909]},{"header":{"parameterUnit":"m.s-1","parameterCategory":1,"la1":30.2991,"la2":30.254,"lo1":-89.0895,"lo2":-89.0444,"dx":0.0017,"dy":0.0017,"nx":28,"ny":28,"refTime":"2023-02-06T15:00:00:Z","depth":0,"parameterNumber":3,"parameterNumberName":"V-component_of_WINDS"},"data":[0,0,0,0,0,0,0,0,0,0,0,0,0,0,0,0,0,0,0,0,0,0,0,0,0,0,0,0,0,0,0,0,0,0,0,0,0,0,0,0,0,0,0,0,0,0,0,0,0,0,0,0,0,0,0,0,0,0,2.2392,2.2393,0,2.2523,2.2524,2.2526,2.2646,2.2648,2.2649,2.2651,2.2782,2.2784,2.2786,0,0,0,0,0,0,0,0,0,0,0,0,0,2.2245,2.2247,2.2392,2.2393,2.2395,2.2522,2.2524,2.2526,2.2646,2.2648,2.265,2.2651,2.2781,2.2784,2.2786,0,0,0,0,0,0,0,0,0,0,0,0,0,2.2335,2.2248,2.2391,2.247,2.2479,2.2522,2.2524,2.2526,2.2646,2.2648,2.265,2.2652,2.278,2.2783,2.2786,2.2761,0,0,2.2796,2.2797,0,0,0,0,0,0,0,0,2.233,2.2341,2.2457,2.2465,2.2475,2.2571,2.2521,2.2605,2.2645,2.2582,2.2651,2.2653,2.2709,2.2719,2.2738,2.2767,2.2773,2.2796,2.2798,2.28,2.28,0,0,0,0,0,0,0,2.2324,2.2336,2.2444,2.2459,2.2469,2.2499,2.2514,2.2537,2.2632,2.2588,2.2597,2.2611,2.2715,2.2735,2.2742,2.2775,2.2796,2.2799,2.2801,2.2802,2.2794,2.2792,0,0,0,0,0,0,2.2306,2.233,2.2439,2.2447,2.2407,2.25,2.2517,2.2537,2.2632,2.2648,2.2609,2.2616,2.2728,2.2738,2.2747,2.2727,2.28,2.2802,2.2804,2.2796,2.2793,2.2791,0,0,0,0,0,0,2.2302,2.2314,2.2434,2.2391,2.2409,2.25,2.2522,2.2539,2.2559,2.2648,2.2665,2.2612,2.273,2.2743,2.2758,2.2733,2.2804,2.2807,2.2798,2.2795,2.2792,2.2684,0,0,0,0,0,0,2.2297,2.2312,2.2304,2.239,2.2411,2.2443,2.252,2.254,2.2565,2.2575,2.2656,2.2671,2.2733,2.2753,2.2761,2.2739,2.2809,2.2801,2.2797,2.2793,2.2691,2.2678,2.2667,0,0,0,0,0,2.2292,2.2267,2.2303,2.2315,2.2402,2.2441,2.2453,2.2526,2.2562,2.2555,2.2612,2.2668,2.2734,2.2753,2.2764,2.2742,2.2803,2.2798,2.2793,2.2696,2.2681,2.2667,0,0,0,0,0,0,2.2174,2.228,2.2321,2.2323,2.2372,2.2461,2.2454,2.2506,2.2546,2.2554,2.2642,2.2659,2.2665,2.2704,2.2724,2.2724,2.2776,2.2773,2.2699,2.2685,2.2673,2.2665,2.2812,0,0,0,0,0,2.2149,2.2172,2.2263,2.2256,2.2279,2.2362,2.2381,2.2434,2.2488,2.2509,2.2567,2.2617,2.265,2.2669,2.2703,2.2696,2.2717,2.2686,2.2675,2.2665,2.2662,2.2664,2.2653,2.2775,2.2775,2.2775,0,0,2.2096,2.2157,2.2166,2.2234,2.2279,2.2301,2.2379,2.2398,2.2417,2.2512,2.2531,2.2575,2.2637,2.2641,2.2646,2.2675,2.2632,2.2658,2.265,2.2653,2.2658,2.2647,2.2636,2.2772,2.2772,2.2773,0,0,2.2013,2.206,2.2062,2.2105,2.2171,2.2227,2.2227,2.2309,2.2342,2.2363,2.2436,2.2458,2.251,2.2552,2.258,2.2514,2.2569,2.2522,2.2462,2.2463,2.2454,2.2446,2.2425,2.2416,2.2519,2.2518,2.2518,0,2.1939,2.1977,2.2055,2.2072,2.2101,2.2189,2.2192,2.223,2.2303,2.2321,2.2352,2.2422,2.2469,2.2487,2.2471,2.2489,2.2494,2.2515,2.2449,2.2442,2.2435,2.2417,2.2408,2.2513,2.2513,2.2514,2.2515,0,2.1885,2.191,2.1903,2.1974,2.2002,2.2011,2.2091,2.2109,2.2159,2.2211,2.2232,2.2292,2.2341,2.2348,2.2396,2.2373,2.2389,2.2432,2.2487,2.2417,2.2401,2.2394,2.2504,2.2507,2.2508,2.251,0,0,2.1733,2.1848,2.1845,2.1879,2.196,2.198,2.1994,2.2044,2.2059,2.2106,2.2121,2.2164,2.2206,2.2238,2.2291,2.2291,2.2239,2.2336,2.2339,2.2319,2.2221,2.2191,2.2181,2.2275,2.2273,2.2273,2.2217,0,2.1666,2.1697,2.1769,2.1778,2.1803,2.1887,2.1899,2.195,2.1999,2.2027,2.2081,2.2112,2.2163,2.2183,2.2187,2.2245,2.2221,2.2249,2.2291,2.2291,2.2276,2.2172,2.2139,2.2084,2.2211,2.221,2.221,0,2.1592,2.1637,2.1649,2.173,2.1744,2.1753,2.1806,2.1832,2.1891,2.1927,2.1962,2.2021,2.2041,2.2089,2.2118,2.2135,2.2156,2.2187,2.2186,2.2196,2.2248,2.2182,2.2068,2.2061,2.22,2.2201,2.2201,0,2.1485,2.1547,2.1564,2.159,2.1684,2.169,2.1729,2.179,2.1816,2.1861,2.188,2.1925,2.1951,2.1985,2.2055,2.2083,2.2077,2.213,2.2109,2.2107,2.2107,2.2106,2.1998,2.2114,2.2114,2.2114,2.2114,0,2.1405,2.1409,2.1517,2.1527,2.1536,2.1617,2.1623,2.167,2.1724,2.1745,2.1819,2.1837,2.1927,2.1955,2.201,2.2027,2.2037,2.2068,2.2083,2.2063,2.206,2.208,2.2087,2.2112,2.2112,2.2113,2.2113,0,2.1287,2.1359,2.1383,2.1471,2.1493,2.1495,2.157,2.1584,2.1637,2.1663,2.1674,2.1757,2.1795,2.1867,2.1924,2.1961,2.1968,2.1991,2.1948,2.1958,2.1934,2.1936,2.1838,2.1831,2.1947,2.1946,2.1945,0,2.1233,2.1239,2.1328,2.1348,2.1385,2.1416,2.1444,2.1523,2.1549,2.1618,2.1623,2.1667,2.1707,2.1762,2.1828,2.1873,2.1901,2.1863,2.1908,2.1889,2.1904,2.1904,2.1907,2.1854,2.1852,2.1851,2.1849,0,2.1131,2.1166,2.1204,2.1254,2.1285,2.1328,2.1375,2.1387,2.1477,2.1502,2.1543,2.1573,2.1633,2.1676,2.173,2.1771,2.1826,2.1834,2.1833,2.1814,2.1791,2.1807,2.1925,2.1837,2.1838,2.1839,2.184,2.184,2.1046,2.1057,2.1122,2.1162,2.1205,2.1247,2.1265,2.1321,2.1357,2.1413,2.1457,2.1494,2.1554,2.1634,2.167,2.1701,2.1727,2.1723,2.1723,2.1721,2.1715,2.1783,2.171,2.1711,2.1711,2.1712,2.1712,0,2.0951,2.0997,2.1033,2.1097,2.1128,2.1177,2.1232,2.1255,2.1287,2.1339,2.1377,2.1424,2.1466,2.1535,2.1583,2.1594,2.1621,2.1605,2.1606,2.1615,2.1687,2.1686,2.1583,2.1583,2.1583,2.1583,2.1583,2.1583,2.0906,2.0927,2.097,2.1015,2.1061,2.1099,2.1126,2.1166,2.1209,2.1258,2.1294,2.1339,2.1399,2.1452,2.1493,2.1512,2.1528,2.1504,2.1531,2.1598,2.161,2.1622,2.1621,2.1506,2.1506,2.1458,2.1458,2.1457]}]]